Powrót do katalogu

STARLINK-30247

AktywnyŁącznośćVLEO
NORAD 57644·PAYLOAD·🇺🇸 United States

Wystrzelony Aug 17, 2023 z Cape Canaveral Space Force Station

Loading…

Następne Przeloty (najbliższe 24 godziny)

TLE

ŚwieżeSource: CelesTrak SupGP

Epoka: Sep 15, 2026, 01:53 UTC

1 57644C 23122N   26258.07895833  .00044488  00000+0  16109-2 0  2586
2 57644  43.0005 102.7165 0001455 266.3532 114.9580 15.27565989    10

Śledź STARLINK-30247 w czasie rzeczywistym z AllMySat

Download on the App Store